Powrót do katalogu

DIAMANT B-P4 DEB

AktywnyLEO
NORAD 7659·DEBRIS·🇫🇷 France

Wystrzelony Feb 6, 1975 z Guiana Space Centre

Loading…

Następne Przeloty (najbliższe 24 godziny)

TLE

ŚwieżeSource: Space-Track

Epoka: Sep 14, 2026, 13:14 UTC

1 07659U 75010E   26257.55168843  .00000008  00000-0  99767-4 0  9992
2 07659  49.8147  87.6153 0184683 275.3915  82.5939 13.94130783617812

Śledź DIAMANT B-P4 DEB w czasie rzeczywistym z AllMySat

Download on the App Store